Tracking 31027 objects as of 19-Jul-2025
HD Live streaming from Space Station
objects crossing your sky now

STARLINK-30793

Track STARLINK-30793 now!
10-day predictions
STARLINK-30793 is classified as:


NORAD ID: 58185
Int'l Code: 2023-167L
Perigee: 565.3 km
Apogee: 567.2 km
Inclination: 43.0 °
Period: 95.8 minutes
Semi major axis: 6937 km
RCS: Unknown
Launch date: October 30, 2023
Source: United States (US)
Launch site: AIR FORCE EASTERN TEST RANGE (AFETR)
Your satellite tracking list
HAWK-4A
Track 1 satellite(s)




NASA's NSSDC Master Catalog

Two Line Element Set (TLE):
1 58185U 23167L   25199.39361521  .00001484  00000-0  12490-3 0  9998
2 58185  43.0047 338.8044 0001381 262.1637  97.9049 15.02527851 95713
Source of the keplerian elements: AFSPC